Wind_Speed
34 34 33 32 32 31 29 26 26 23 17 16 15 13 12 16 25 31 32 32 32 32 32 32 32 30 27 26 26 26 26 26 27 27 29 29 28 30
33 32 31 29 28 25 25 24 22 19 15 13 17 24 24 22 26 30 32 32 31 32 31 31 28 25 25 25 25 25 25 26 27 28 29 28 30 29
29 29 28 26 24 23 20 17 16 16 20 21 22 19 22 24 27 29 30 31 32 31 30 28 27 23 23 23 24 25 25 26 27 27 28 28 28 28
27 24 23 21 20 17 14 14 14 14 17 16 20 21 24 25 27 29 29 30 31 30 27 24 22 22 23 23 23 23 24 25 26 28 29 30 31 31
21 18 16 15 14 14 15 16 15 14 15 22 23 24 25 26 28 28 29 30 28 24 22 21 21 20 21 23 23 24 26 28 29 30 30 31 32 32
13 14 15 15 15 15 15 13 13 15 16 21 23 24 26 26 27 28 27 27 28 23 23 19 21 23 21 22 25 26 28 28 29 30 30 30 31 32
12 11 11 10 11 12 11 11 13 16 17 20 23 24 25 23 20 25 28 25 27 25 25 26 26 26 24 26 25 24 25 27 28 29 29 30 31 32
8 8 7 7 7 7 9 11 13 16 18 20 23 24 20 22 25 22 22 27 27 25 31 29 31 32 29 24 23 23 23 26 29 29 30 30 30 31
3 3 5 6 8 11 12 13 14 16 16 16 18 20 23 23 21 22 23 23 28 32 32 36 33 32 26 28 25 26 25 22 23 25 26 27 28 29
1 4 6 8 11 13 14 13 15 16 16 19 21 21 18 17 20 23 24 27 30 31 29 31 31 32 35 36 33 22 20 22 23 24 25 26 28 30
6 8 10 12 12 11 12 16 18 18 17 16 14 14 16 16 17 21 22 26 29 32 30 25 34 38 39 36 30 29 32 29 29 28 27 27 29 30
9 11 11 12 11 8 10 16 18 14 13 12 11 12 14 15 15 18 20 24 27 32 24 29 35 31 27 34 36 38 35 33 30 29 28 27 28 29
11 12 12 11 8 10 10 12 11 11 12 12 13 13 13 13 13 15 19 23 25 29 30 26 35 35 28 36 42 40 39 36 35 32 28 24 20 20
10 11 11 11 10 8 7 6 7 9 11 12 12 12 13 11 14 17 19 22 24 27 25 24 30 29 31 36 43 44 40 37 33 30 23 24 23 22
10 10 9 8 6 4 4 6 8 9 11 12 13 13 12 14 17 20 21 23 26 24 22 21 23 25 27 33 38 40 41 38 24 28 29 28 28 26
8 8 6 4 4 5 6 8 9 10 12 14 16 14 14 17 19 22 25 26 28 26 24 25 24 25 27 28 31 36 32 35 33 32 32 32 29 27
10 7 5 3 4 5 6 8 9 10 12 14 16 15 16 19 21 22 23 26 28 30 31 27 27 28 28 28 31 32 34 37 35 34 33 34 29 26
6 4 4 5 7 8 9 9 8 11 13 15 15 15 17 20 25 23 25 28 31 31 32 29 30 31 32 30 24 33 38 38 37 33 31 33 35 29
4 5 6 8 9 11 12 12 11 12 14 16 16 16 17 21 25 28 28 30 33 31 31 31 33 30 31 34 32 24 31 32 30 30 27 27 30 26
5 6 8 10 12 12 14 15 13 14 16 18 16 16 17 22 26 29 31 32 32 33 35 32 31 31 28 33 39 36 29 31 28 29 27 25 24 23
5 7 9 11 12 14 16 17 17 16 18 20 18 17 18 22 27 30 31 30 30 33 36 35 32 29 29 31 32 37 32 25 23 23 24 27 27 27
8 10 11 12 14 15 17 18 17 17 19 19 18 18 19 22 28 31 30 31 32 34 36 37 36 33 31 30 33 36 34 29 22 21 19 17 20 21
10 11 12 14 15 16 17 19 19 19 21 21 20 18 20 24 27 31 32 31 33 35 36 37 36 32 31 30 30 35 33 31 29 29 23 16 19 23
Wind_Direction
237 241 243 241 242 239 246 233 231 239 249 234 244 245 261 278 286 291 295 299 301 302 301 301 299 295 292 290 287 284 281 280 279 277 276 275 276 272
230 233 236 236 240 237 230 233 233 235 233 232 257 276 278 290 289 289 294 299 301 302 303 302 297 293 291 290 288 285 281 279 277 277 275 275 274 272
224 226 227 227 228 231 240 243 250 256 262 268 279 293 286 284 286 289 296 299 301 303 304 300 298 296 292 289 286 284 283 280 278 278 278 275 274 274
216 211 215 228 234 241 248 263 262 269 280 295 292 287 286 288 291 296 300 302 304 307 303 298 299 299 298 293 289 286 284 282 280 279 279 277 276 274
205 215 219 229 246 255 255 253 263 282 301 285 286 291 291 296 301 305 306 306 306 307 305 304 300 300 297 298 293 286 283 282 280 278 276 274 272 271
211 235 246 245 247 254 265 288 301 273 278 283 290 293 298 304 307 310 311 312 313 315 311 308 306 304 306 302 298 294 289 286 284 281 277 273 271 270
231 235 237 248 254 281 293 291 292 297 296 292 289 294 299 306 307 309 308 311 312 317 319 318 316 315 314 308 302 296 292 290 287 282 279 275 272 270
204 230 261 296 290 282 291 295 295 293 287 284 287 291 299 303 308 309 308 314 315 320 318 309 318 315 317 309 303 302 297 291 288 283 279 276 275 273
238 292 269 290 294 291 288 287 286 275 270 282 288 294 298 303 304 306 305 302 305 316 312 307 317 313 318 313 313 310 301 297 294 289 282 280 278 275
261 291 302 304 302 300 302 297 290 287 289 288 288 291 297 305 305 302 305 306 307 314 312 303 320 314 315 316 319 317 313 309 304 296 287 280 278 277
316 312 308 309 308 310 303 298 295 297 295 291 292 294 294 296 300 301 307 308 308 315 318 305 318 317 317 319 321 322 322 319 312 303 295 287 281 278
316 316 314 308 315 314 296 291 299 311 305 306 305 304 304 305 304 303 309 309 312 314 315 314 313 318 318 316 317 318 319 320 316 312 305 297 287 277
326 328 324 322 305 302 297 302 308 314 316 314 316 317 316 315 310 310 312 312 312 307 322 311 309 311 300 306 312 317 319 321 319 314 309 302 293 285
317 322 323 320 318 313 308 307 309 310 310 312 316 319 316 315 316 319 317 314 310 312 322 312 304 307 305 306 308 318 320 319 316 314 315 309 299 292
327 324 323 322 330 335 327 318 316 316 316 317 318 320 318 322 323 322 322 319 315 323 328 328 314 310 304 303 306 312 317 322 318 316 315 311 304 297
340 338 340 341 345 341 335 325 320 321 322 322 322 320 319 322 328 328 328 328 325 330 334 337 331 326 318 311 309 310 318 308 319 319 317 309 305 301
348 347 344 330 319 321 325 322 318 319 319 321 320 317 317 320 326 331 333 334 332 331 330 333 335 330 326 324 318 317 319 319 321 321 317 311 308 311
339 339 333 332 332 332 332 327 319 320 321 323 320 316 317 321 325 332 334 332 330 331 334 339 339 335 333 323 321 321 319 318 323 321 317 311 313 319
336 340 340 336 332 329 328 327 324 324 324 324 317 312 314 320 329 332 333 335 336 336 337 341 339 335 319 308 323 312 308 320 322 320 319 313 309 317
341 340 336 331 327 326 324 323 320 321 323 324 315 312 316 322 326 330 333 335 337 338 335 335 337 335 318 311 314 326 335 327 324 318 320 318 316 324
330 330 326 325 324 324 323 322 320 320 321 324 319 313 315 323 326 329 332 335 332 334 331 331 330 330 327 330 314 323 331 332 328 321 322 317 319 324
325 327 325 324 323 324 323 321 320 320 321 319 315 307 312 320 324 328 333 333 333 332 328 328 333 330 325 317 314 323 327 327 326 324 314 305 296 294
319 324 326 325 322 323 322 321 320 322 322 322 320 312 313 319 325 329 332 326 329 330 327 328 329 322 317 314 313 319 325 326 327 322 318 314 296 299
Height
1495 1498 1500 1502 1503 1503 1504 1505 1506 1505 1507 1511 1515 1511 1511 1511 1511 1510 1505 1501 1498 1497 1493 1490 1486 1483 1482 1480 1479 1478 1477 1476 1476 1475 1474 1473 1471 1471
1487 1490 1493 1496 1497 1498 1498 1498 1497 1499 1504 1503 1507 1506 1503 1503 1503 1502 1498 1492 1490 1488 1485 1481 1477 1475 1473 1471 1471 1470 1469 1468 1467 1466 1465 1464 1462 1461
1481 1484 1487 1489 1491 1493 1496 1495 1497 1498 1500 1499 1498 1498 1502 1499 1497 1495 1491 1486 1483 1480 1477 1472 1469 1467 1465 1463 1462 1462 1460 1459 1457 1455 1455 1454 1453 1452
1476 1479 1482 1486 1488 1490 1492 1493 1494 1490 1494 1492 1492 1492 1492 1492 1489 1485 1483 1479 1475 1472 1468 1465 1462 1459 1457 1455 1453 1453 1452 1449 1448 1446 1445 1444 1443 1442
1476 1480 1481 1483 1486 1488 1489 1488 1485 1484 1486 1487 1484 1485 1484 1483 1480 1477 1474 1471 1468 1465 1461 1458 1456 1453 1451 1449 1446 1444 1442 1439 1437 1435 1434 1433 1432 1431
1476 1478 1480 1480 1480 1480 1485 1482 1481 1483 1479 1481 1480 1480 1478 1476 1473 1470 1467 1464 1459 1458 1455 1452 1449 1446 1445 1442 1438 1435 1432 1429 1426 1424 1422 1421 1420 1419
1473 1475 1475 1478 1478 1478 1480 1476 1477 1478 1477 1478 1477 1474 1472 1470 1467 1465 1461 1457 1453 1451 1447 1445 1442 1439 1436 1433 1429 1426 1422 1419 1416 1413 1413 1412 1410 1409
1469 1474 1475 1476 1474 1475 1473 1472 1473 1472 1474 1473 1471 1469 1466 1464 1461 1459 1456 1453 1446 1445 1440 1437 1435 1431 1428 1424 1421 1418 1414 1410 1407 1405 1404 1402 1401 1399
1469 1470 1471 1471 1471 1472 1470 1470 1469 1468 1469 1469 1466 1464 1460 1459 1456 1453 1451 1448 1443 1438 1435 1429 1428 1422 1420 1416 1413 1409 1405 1401 1398 1396 1395 1394 1392 1390
1468 1469 1469 1468 1468 1467 1466 1464 1463 1463 1463 1462 1459 1457 1455 1453 1451 1448 1444 1441 1437 1433 1430 1420 1418 1414 1410 1405 1402 1400 1398 1394 1391 1388 1386 1384 1382 1380
1466 1465 1466 1465 1464 1462 1460 1460 1459 1459 1457 1455 1453 1452 1450 1448 1445 1442 1439 1435 1429 1426 1424 1416 1410 1404 1399 1394 1392 1390 1387 1384 1382 1378 1375 1372 1370 1368
1464 1463 1462 1461 1459 1458 1458 1456 1454 1453 1452 1450 1449 1448 1446 1443 1441 1437 1434 1430 1426 1419 1417 1413 1405 1401 1391 1385 1383 1381 1378 1375 1371 1367 1364 1361 1358 1355
1460 1459 1457 1456 1456 1454 1453 1451 1450 1449 1447 1446 1445 1443 1441 1439 1437 1434 1430 1426 1422 1417 1414 1408 1399 1396 1392 1381 1374 1372 1369 1364 1360 1356 1353 1350 1347 1345
1457 1455 1453 1452 1450 1449 1449 1448 1447 1446 1444 1443 1440 1439 1437 1435 1433 1429 1426 1421 1416 1412 1409 1404 1395 1391 1385 1378 1368 1362 1360 1356 1351 1345 1343 1341 1339 1336
1453 1452 1450 1449 1448 1447 1446 1446 1444 1442 1441 1439 1437 1435 1432 1430 1427 1423 1420 1415 1410 1407 1402 1397 1390 1385 1379 1372 1365 1356 1350 1344 1343 1340 1335 1331 1328 1326
1451 1449 1448 1447 1446 1445 1444 1442 1441 1439 1436 1434 1432 1430 1427 1425 1422 1418 1413 1408 1402 1398 1395 1390 1385 1378 1372 1366 1360 1350 1347 1341 1336 1331 1326 1321 1318 1316
1449 1447 1447 1446 1445 1444 1442 1440 1438 1436 1434 1431 1428 1425 1423 1420 1417 1413 1409 1403 1398 1392 1386 1383 1377 1371 1365 1359 1350 1344 1338 1332 1328 1323 1318 1311 1307 1305
1447 1446 1445 1444 1443 1441 1439 1437 1435 1433 1430 1427 1424 1421 1419 1416 1411 1408 1404 1399 1392 1386 1380 1375 1369 1362 1355 1351 1347 1337 1331 1325 1320 1316 1311 1305 1297 1297
1446 1444 1443 1442 1440 1438 1436 1433 1431 1429 1426 1423 1420 1417 1414 1411 1406 1402 1398 1392 1386 1380 1375 1369 1363 1358 1351 1341 1340 1338 1329 1321 1315 1309 1306 1301 1294 1290
1444 1443 1441 1440 1438 1435 1433 1430 1427 1425 1422 1419 1416 1413 1410 1406 1401 1397 1392 1386 1380 1374 1368 1364 1359 1354 1348 1341 1331 1323 1322 1316 1311 1303 1298 1294 1289 1284
1442 1440 1438 1436 1434 1432 1430 1427 1423 1420 1417 1413 1411 1408 1405 1401 1397 1392 1386 1382 1376 1370 1362 1356 1353 1348 1342 1335 1327 1318 1313 1311 1306 1299 1294 1288 1282 1277
1439 1438 1436 1434 1431 1428 1426 1423 1420 1416 1413 1409 1406 1403 1400 1396 1391 1386 1381 1375 1370 1364 1357 1350 1344 1340 1335 1330 1322 1314 1306 1302 1300 1295 1290 1286 1281 1274
1436 1435 1433 1431 1428 1425 1421 1418 1415 1412 1408 1403 1400 1397 1394 1390 1386 1381 1375 1370 1364 1357 1352 1343 1339 1335 1329 1324 1318 1309 1302 1296 1290 1284 1281 1280 1276 1270